TimeCST,TemperatureF,Dew PointF,Humidity,Sea Level PressureIn,VisibilityMPH,Wind Direction,Wind SpeedMPH,Gust SpeedMPH,PrecipitationIn,Events,Conditions,WindDirDegrees,DateUTC
12:17 AM,17.6,15.8,93,29.87,10.0,WSW,3.5,-,N/A,Snow,Light Snow,240,2013-02-12 06:17:00
12:36 AM,17.6,15.8,93,29.87,10.0,WSW,5.8,-,N/A,Snow,Light Snow,240,2013-02-12 06:36:00
12:57 AM,17.6,14.0,86,29.87,10.0,WSW,9.2,-,N/A,,Overcast,240,2013-02-12 06:57:00
1:16 AM,15.8,12.2,86,29.86,10.0,West,4.6,-,N/A,,Mostly Cloudy,260,2013-02-12 07:16:00
1:37 AM,12.2,10.4,92,29.85,10.0,WSW,4.6,-,N/A,,Scattered Clouds,240,2013-02-12 07:37:00
1:56 AM,12.2,10.4,92,29.85,10.0,WSW,3.5,-,N/A,,Scattered Clouds,240,2013-02-12 07:56:00
2:16 AM,12.2,10.4,92,29.85,10.0,SW,4.6,-,N/A,,Scattered Clouds,230,2013-02-12 08:16:00
2:37 AM,10.4,8.6,92,29.86,10.0,WSW,5.8,-,N/A,,Clear,240,2013-02-12 08:37:00
2:56 AM,10.4,8.6,92,29.85,10.0,WSW,4.6,-,N/A,,Scattered Clouds,240,2013-02-12 08:56:00
3:17 AM,8.6,6.8,92,29.84,10.0,Calm,Calm,-,N/A,,Scattered Clouds,0,2013-02-12 09:17:00
3:36 AM,6.8,6.8,100,29.85,10.0,Calm,Calm,-,N/A,,Clear,0,2013-02-12 09:36:00
3:57 AM,6.8,5.0,92,29.84,10.0,SSW,3.5,-,N/A,,Scattered Clouds,210,2013-02-12 09:57:00
4:17 AM,8.6,6.8,92,29.84,10.0,SW,3.5,-,N/A,,Mostly Cloudy,220,2013-02-12 10:17:00
4:36 AM,8.6,6.8,92,29.85,7.0,SW,4.6,-,N/A,Snow,Light Snow,220,2013-02-12 10:36:00
4:57 AM,8.6,6.8,92,29.85,10.0,SW,4.6,-,N/A,Snow,Light Snow,230,2013-02-12 10:57:00
5:17 AM,10.4,8.6,92,29.85,10.0,SSW,4.6,-,N/A,Snow,Light Snow,210,2013-02-12 11:17:00
5:36 AM,10.4,8.6,92,29.84,10.0,SSW,4.6,-,N/A,Snow,Light Snow,200,2013-02-12 11:36:00
5:57 AM,10.4,8.6,92,29.84,10.0,SSW,3.5,-,N/A,Snow,Light Snow,210,2013-02-12 11:57:00
6:17 AM,10.4,8.6,92,29.83,10.0,SSW,5.8,-,N/A,Snow,Light Snow,210,2013-02-12 12:17:00
6:36 AM,12.2,10.4,92,29.82,10.0,SSW,4.6,-,N/A,Snow,Light Snow,200,2013-02-12 12:36:00
6:56 AM,12.2,10.4,92,29.82,10.0,SSW,4.6,-,N/A,,Overcast,200,2013-02-12 12:56:00
7:17 AM,12.2,10.4,92,29.81,10.0,South,3.5,-,N/A,,Overcast,170,2013-02-12 13:17:00
7:36 AM,12.2,10.4,92,29.81,10.0,South,3.5,-,N/A,,Overcast,180,2013-02-12 13:36:00
7:57 AM,12.2,12.2,100,29.80,10.0,South,3.5,-,N/A,,Overcast,170,2013-02-12 13:57:00
8:16 AM,14.0,12.2,93,29.80,10.0,South,4.6,-,N/A,,Overcast,190,2013-02-12 14:16:00
8:36 AM,15.8,12.2,86,29.79,7.0,South,4.6,-,N/A,,Overcast,190,2013-02-12 14:36:00
8:57 AM,15.8,14.0,93,29.79,10.0,South,5.8,-,N/A,,Overcast,190,2013-02-12 14:57:00
9:16 AM,15.8,14.0,93,29.78,10.0,South,8.1,-,N/A,,Overcast,190,2013-02-12 15:16:00
9:37 AM,15.8,12.2,86,29.78,10.0,South,8.1,-,N/A,,Overcast,190,2013-02-12 15:37:00
9:56 AM,15.8,14.0,93,29.77,10.0,South,6.9,-,N/A,,Overcast,190,2013-02-12 15:56:00
10:16 AM,17.6,15.8,93,29.78,10.0,South,6.9,-,N/A,,Overcast,190,2013-02-12 16:16:00
10:36 AM,17.6,15.8,93,29.76,10.0,SSW,10.4,16.1,N/A,,Mostly Cloudy,200,2013-02-12 16:36:00
10:56 AM,19.4,15.8,86,29.76,10.0,SSW,6.9,-,N/A,,Overcast,210,2013-02-12 16:56:00
11:17 AM,19.4,15.8,86,29.76,2.5,SSW,9.2,-,N/A,,Overcast,210,2013-02-12 17:17:00
11:36 AM,19.4,15.8,86,29.75,10.0,SSW,8.1,-,N/A,,Overcast,200,2013-02-12 17:36:00
11:56 AM,21.2,17.6,86,29.74,10.0,SSW,6.9,-,N/A,,Overcast,210,2013-02-12 17:56:00
12:17 PM,21.2,17.6,86,29.73,10.0,SSW,8.1,-,N/A,,Overcast,210,2013-02-12 18:17:00
12:36 PM,21.2,17.6,86,29.72,10.0,SSW,8.1,-,N/A,,Mostly Cloudy,200,2013-02-12 18:36:00
12:56 PM,23.0,17.6,80,29.72,10.0,SSW,6.9,-,N/A,,Mostly Cloudy,210,2013-02-12 18:56:00
1:17 PM,24.8,17.6,74,29.71,10.0,South,6.9,-,N/A,,Mostly Cloudy,190,2013-02-12 19:17:00
1:36 PM,24.8,19.4,80,29.70,10.0,SW,3.5,-,N/A,,Mostly Cloudy,220,2013-02-12 19:36:00
1:56 PM,26.6,19.4,74,29.70,10.0,SW,9.2,-,N/A,,Scattered Clouds,230,2013-02-12 19:56:00
2:17 PM,26.6,19.4,74,29.70,10.0,WSW,9.2,-,N/A,,Clear,240,2013-02-12 20:17:00
2:36 PM,28.4,19.4,69,29.70,10.0,SW,4.6,-,N/A,,Clear,220,2013-02-12 20:36:00
2:56 PM,28.4,19.4,69,29.70,10.0,WSW,11.5,-,N/A,,Scattered Clouds,240,2013-02-12 20:56:00
3:17 PM,28.4,19.4,69,29.70,10.0,WSW,6.9,-,N/A,,Scattered Clouds,240,2013-02-12 21:17:00
3:36 PM,28.4,19.4,69,29.70,10.0,WSW,8.1,-,N/A,,Scattered Clouds,250,2013-02-12 21:36:00
3:56 PM,28.4,21.2,74,29.70,10.0,WSW,9.2,-,N/A,,Clear,250,2013-02-12 21:56:00
4:17 PM,28.4,21.2,74,29.69,10.0,WSW,6.9,-,N/A,,Clear,240,2013-02-12 22:17:00
4:36 PM,28.4,21.2,74,29.69,10.0,SW,5.8,-,N/A,,Clear,230,2013-02-12 22:36:00
4:56 PM,26.6,21.2,80,29.69,10.0,SW,5.8,-,N/A,,Clear,220,2013-02-12 22:56:00
5:16 PM,24.8,19.4,80,29.69,10.0,SW,4.6,-,N/A,,Clear,220,2013-02-12 23:16:00
5:36 PM,26.6,21.2,80,29.69,10.0,SSW,4.6,-,N/A,,Clear,210,2013-02-12 23:36:00
5:57 PM,24.8,21.2,86,29.68,10.0,SSW,4.6,-,N/A,,Clear,210,2013-02-12 23:57:00
6:16 PM,24.8,19.4,80,29.68,10.0,SSW,4.6,-,N/A,,Mostly Cloudy,210,2013-02-13 00:16:00
6:36 PM,24.8,19.4,80,29.68,10.0,SSW,3.5,-,N/A,,Overcast,210,2013-02-13 00:36:00
6:57 PM,24.8,19.4,80,29.68,10.0,SW,3.5,-,N/A,,Scattered Clouds,220,2013-02-13 00:57:00
7:16 PM,24.8,19.4,80,29.67,10.0,SW,4.6,-,N/A,,Mostly Cloudy,220,2013-02-13 01:16:00
7:36 PM,24.8,19.4,80,29.66,10.0,SW,5.8,-,N/A,,Scattered Clouds,220,2013-02-13 01:36:00
7:57 PM,24.8,19.4,80,29.66,10.0,SW,5.8,-,N/A,,Clear,220,2013-02-13 01:57:00
8:16 PM,24.8,19.4,80,29.66,10.0,SW,4.6,-,N/A,,Clear,230,2013-02-13 02:16:00
8:36 PM,24.8,19.4,80,29.66,10.0,WSW,5.8,-,N/A,,Mostly Cloudy,240,2013-02-13 02:36:00
8:57 PM,24.8,21.2,86,29.66,10.0,WSW,5.8,-,N/A,,Overcast,240,2013-02-13 02:57:00
9:16 PM,24.8,21.2,86,29.66,10.0,WSW,6.9,-,N/A,,Overcast,240,2013-02-13 03:16:00
9:37 PM,24.8,21.2,86,29.66,10.0,WSW,6.9,-,N/A,,Overcast,250,2013-02-13 03:37:00
9:56 PM,24.8,21.2,86,29.66,10.0,WSW,6.9,-,N/A,,Scattered Clouds,250,2013-02-13 03:56:00
10:17 PM,24.8,19.4,80,29.65,10.0,WSW,8.1,-,N/A,,Clear,250,2013-02-13 04:17:00
10:36 PM,23.0,19.4,86,29.65,10.0,WSW,5.8,-,N/A,,Clear,250,2013-02-13 04:36:00
10:57 PM,21.2,19.4,93,29.65,10.0,WSW,5.8,-,N/A,,Clear,240,2013-02-13 04:57:00
11:16 PM,21.2,19.4,93,29.65,10.0,WSW,4.6,-,N/A,,Clear,250,2013-02-13 05:16:00
11:36 PM,21.2,19.4,93,29.64,10.0,WSW,3.5,-,N/A,,Clear,240,2013-02-13 05:36:00
11:57 PM,19.4,17.6,93,29.64,10.0,Calm,Calm,-,N/A,,Clear,0,2013-02-13 05:57:00